User: anonymous   Login
Location: Csohesd
(46.2500°N, 22.6167°E)
Time: 10:51:56
(UTC+00:00)
Language:

Cosmos 1153 Rocket - Orbit

View from above orbital plane
View from above orbital plane
View from above satellite
View from above satellite

Ground track
Ground track

The orbit data is extracted from the following two-line orbital elements,

1 11681U 80007B   22021.90130844  .00000106  00000-0  94162-4 0  9991
2 11681  82.9295 247.1588 0036007 343.1195  27.1546 13.75472031103272
Epoch (UTC): 21 January 2022 21:37:53
Eccentricity: 0.0036007
inclination: 82.9295°
perigee height: 953 km
apogee height: 1006 km
right ascension of ascending node: 247.1588°
argument of perigee: 343.1195°
revolutions per day: 13.75472031
mean anomaly at epoch: 27.1546°
orbit number at epoch: 10327

The dashed part of the orbit path shows where the satellite is in the earth's shadow,  

DLR